ABS-2

Last updated on Thu Oct 30 2025 00:02:49 GMT+0000 (Coordinated Universal Time)

1 39508U 14006A 25302.52297561 -.00000077 00000+0 00000+0 0 9998 2 39508 0.0450 74.4783 0003677 139.9646 86.8944 1.00271639 42969
UTC large
Height (km)
Speed (km/s)
/
Latitude / Longitude
Inclination (degrees)
Orbital Period (minutes)
Azimuth
Elevation
Range (km)
Doppler Factor

Next 0 passes for location: London (51.5072 / 0.1276)

Sorry there are no passes over London.